User: anonymous   Login
Location: ECC Obs
(38.4314°N, 90.9815°W)
Time: 18:35:57
(UTC-05:00)
Language:

SR - Orbit

View from above orbital plane
View from above orbital plane
View from above satellite
View from above satellite

Ground track
Ground track

The orbit data is extracted from the following two-line orbital elements,

1    46U 60007B   20096.38358005 +.00000047 +00000-0 +32328-4 0  9995
2    46 066.6897 243.9393 0211050 187.7177 172.0670 14.49283972128524
Epoch (UTC): 05 April 2020 09:12:21
Eccentricity: 0.0211050
inclination: 66.6897°
perigee height: 578 km
apogee height: 878 km
right ascension of ascending node: 243.9393°
argument of perigee: 187.7177°
revolutions per day: 14.49283972
mean anomaly at epoch: 172.0670°
orbit number at epoch: 12852

The dashed part of the orbit path shows where the satellite is in the earth's shadow,  

DLR